Location: Tauranga
(37.6860°S, 176.1670°E)
Time: 03:36:17
(UTC+13:00)

Cosmos 2322 - Pass Details

Date: 24 January 2019
Orbit: 839 x 856 km, 71.0° (Epoch: 17 February)

Event Time Altitude Azimuth Distance (km) Brightness Sun altitude
Exits shadow 23:18:15 27° 319° (NW) 1,582 4.9 -25.5°
Maximum altitude 23:21:22 64° 246° (WSW) 945 4.0 -25.8°
Drops below altitude 10° 23:27:03 10° 164° (SSE) 2,491 6.6 -26.4°
Sets 23:29:33 0° 160° (SSE) 3,431 7.4 -26.7°
